Location: *
(48.9418°N, 97.2422°W)
Time: 02:47:21
(UTC+00:00)

Daily predictions for brighter satellites

Satellite Brightness Start Highest point End
(mag) Time Altitude Azimuth Time Altitude Azimuth Time Altitude Azimuth
Lacrosse 5 rocket 4.1 00:00:17 10° W 00:02:58 19° SW 00:05:45 10° S
Unknown 4.1 00:03:31 10° W 00:07:36 54° NNW 00:11:41 10° ENE
Unknown 4.1 00:05:07 10° W 00:09:11 54° NNW 00:13:16 10° ENE
Lacrosse 5 2.0 00:05:25 10° NW 00:10:26 58° NNE 00:15:26 10° ESE
Unknown 4.1 00:06:44 10° W 00:10:48 54° NNW 00:14:53 10° ENE
Cosmos 1844 3.9 00:05:09 10° SSW 00:10:53 83° WNW 00:16:43 10° NNE
Cosmos 1328 3.8 00:07:03 10° N 00:11:00 58° ENE 00:14:53 10° SSE
Unknown 4.1 00:08:13 10° W 00:12:18 53° NNW 00:16:23 10° ENE
YAOGAN 6 3.0 00:10:09 10° SE 00:13:34 39° ENE 00:16:59 10° N
Unknown 4.1 00:10:09 10° WNW 00:13:51 44° N 00:17:21 11° ENE
Unknown 4.1 00:09:55 10° W 00:13:59 54° NNW 00:18:02 10° ENE
Cosmos 1271 Rocket 3.8 00:11:57 10° NNW 00:15:50 53° W 00:19:44 10° S
Unknown 4.1 00:13:16 10° W 00:17:20 53° NNW 00:21:14 11° ENE
H-2A R/B 4.0 00:16:12 10° ENE 00:18:06 12° NE 00:20:00 10° NNE
Envisat 3.0 00:13:10 10° SSE 00:18:14 74° ENE 00:23:20 10° N
Unknown 3.3 00:15:14 10° WNW 00:18:43 62° NNE 00:21:52 12° E
Unknown 4.1 00:14:57 10° W 00:19:01 52° N 00:22:50 11° ENE
CSL-04 Rocket 3.9 00:14:02 10° SE 00:19:21 50° ENE 00:24:38 10° N
Cosmos 1939 Rocket 4.0 00:17:05 10° ESE 00:20:16 23° ENE 00:23:30 10° NNE
Unknown 4.2 00:16:51 10° W 00:20:55 51° N 00:24:38 12° ENE
Unknown 4.1 00:18:17 10° W 00:22:21 52° N 00:26:02 12° ENE
Cosmos 2263 Rocket 4.5 00:18:48 10° W 00:22:52 20° NW 00:26:56 10° N
Unknown 4.2 00:19:56 10° W 00:23:59 51° N 00:27:35 13° ENE
USA 116 4.3 00:22:13 10° NE 00:24:58 25° E 00:27:52 10° SSE
Unknown 4.2 00:23:20 10° W 00:27:23 51° N 00:30:50 14° ENE
Unknown 4.2 00:24:58 10° W 00:29:01 50° N 00:32:24 14° ENE
Cosmos 1300 4.1 00:26:34 10° SE 00:29:11 18° E 00:31:48 10° NE
EO 1 Delta rocket 4.1 00:25:09 10° SSE 00:29:35 49° ENE 00:34:32 10° N
CZ-2D R/B 4.1 00:26:23 10° SE 00:29:45 29° ENE 00:33:09 10° N
Cosmos 2058 Rocket 3.0 00:25:34 10° S 00:29:55 83° E 00:34:18 10° NNE
Unknown 4.2 00:26:40 10° W 00:30:42 50° N 00:34:01 15° ENE
Meteor 2-10 3.9 00:25:59 10° S 00:31:00 72° E 00:36:03 10° NNE
Cosmos 489 Rocket 4.4 00:25:10 10° SSW 00:31:19 72° ESE 00:37:32 10° NNE
Unknown 4.2 00:28:19 10° W 00:32:21 50° N 00:35:36 15° ENE
H-2A R/B 4.4 00:28:51 10° SSW 00:32:31 39° W 00:36:15 10° NNW
BREEZE-M DEB (TANK) 3.8 00:28:19 10° SW 00:32:32 27° SSE 00:34:04 17° ESE
Unknown 4.1 00:28:55 10° WNW 00:32:41 45° N 00:35:28 17° ENE
Unknown 4.2 00:31:44 10° W 00:35:46 49° N 00:38:51 16° ENE
Unknown 4.2 00:32:26 10° WNW 00:36:21 46° N 00:39:14 17° ENE
Cosmos 1833 Rocket 2.6 00:31:09 10° NNW 00:36:48 74° ENE 00:42:25 10° SE
Unknown 4.2 00:32:52 10° W 00:36:54 48° N 00:39:56 17° ENE
Unknown 4.2 00:33:34 10° W 00:37:36 48° N 00:40:35 17° ENE
SJ 16-02 3.0 00:34:59 10° NNE 00:37:45 16° NE 00:38:36 15° ENE
Cosmos 1461 2.8 00:34:35 10° NW 00:38:42 84° NE 00:42:54 10° SE
Unknown 4.2 00:35:16 10° W 00:39:18 48° N 00:42:13 17° ENE
ATLAS 3B R/B 3.9 00:36:29 10° SE 00:40:33 17° ESE 00:41:46 16° E
Unknown 4.2 00:36:47 10° W 00:40:45 47° N 00:43:33 18° ENE
Unknown 4.2 00:38:25 10° W 00:42:26 48° N 00:45:14 18° ENE
COSMO-SKYMED 1 2.5 00:38:38 10° NNE 00:43:00 75° ESE 00:47:20 10° S
COBE Rocket 4.1 00:39:23 10° N 00:44:34 83° WNW 00:49:37 10° SSW
Unknown 4.2 00:41:42 10° W 00:45:44 48° N 00:48:23 20° ENE
HJ-1C 4.5 00:46:26 24° E 00:46:50 24° ENE 00:49:38 10° NNE
Unknown 4.2 00:43:24 10° W 00:47:26 48° N 00:50:00 20° ENE
Okean-O 4.3 00:44:10 10° SSW 00:48:18 38° W 00:52:27 10° NNW
Cosmos 1703 3.9 00:44:39 10° NNW 00:48:33 60° W 00:52:23 10° S
Unknown 4.2 00:45:03 10° W 00:49:04 47° N 00:51:35 21° ENE
CENTAUR R/B 3.7 00:45:07 10° SSE 00:49:12 19° ESE 00:49:56 19° E
CZ-4 R/B 1.6 00:45:23 10° S 00:49:34 78° WSW 00:53:50 10° NNW
ATLAS CENTAUR R/B 3.8 00:47:53 10° NNW 00:50:01 13° NNE 00:52:04 10° NE
Unknown 4.2 00:46:43 10° W 00:50:45 47° N 00:53:11 21° ENE
Cosmos 2084 Rocket 3.6 00:46:45 10° NW 00:51:09 57° NE 00:53:52 22° ESE
Unknown 4.2 00:53:24 10° WNW 00:57:25 47° N 00:59:34 24° ENE
Unknown 4.2 00:55:07 10° WNW 00:59:08 47° N 01:01:12 25° ENE
Unknown 4.2 00:56:43 10° WNW 01:00:44 47° N 01:02:44 26° ENE
Ariane Rocket 3.1 00:55:56 10° SE 01:00:54 55° ENE 01:05:53 10° N
Unknown 4.2 00:58:25 10° WNW 01:02:26 47° N 01:04:21 27° ENE
Unknown 4.2 01:00:05 10° WNW 01:04:06 47° N 01:05:56 27° ENE
Cosmos 2082 Rocket 2.1 01:00:23 10° NNW 01:06:08 84° ENE 01:11:50 10° SSE
Cosmos 44 4.2 01:02:25 10° S 01:06:29 27° ESE 01:06:29 27° ESE
CSL-04 Debris 4.4 01:01:18 10° S 01:06:45 72° WSW 01:12:16 10° NNW
Abrixas rocket 2.1 01:03:55 10° WSW 01:06:56 57° SSE 01:07:21 50° SE
Unknown 4.2 01:03:25 10° WNW 01:07:26 47° N 01:09:08 29° NE
Okean 3 Rocket 4.3 01:04:01 10° N 01:08:08 33° ENE 01:08:38 32° E
Starlink (trailer) 4.2 01:05:05 10° WNW 01:09:06 47° N 01:10:43 30° NE
Unknown 4.2 01:06:46 10° WNW 01:10:47 47° N 01:12:20 31° NE
Resurs 01 Rocket 3.9 01:12:46 10° NNE 01:12:46 10° NNE 01:12:58 10° NNE
Cosmos 1908 4.1 01:07:28 10° SSW 01:11:18 53° WNW 01:15:07 10° N
USA 238 DEB 3.6 01:05:19 10° SSW 01:11:55 63° SE 01:18:01 13° NE
USA 238 3.7 01:05:26 10° SSW 01:12:02 63° SE 01:18:06 14° NE
Unknown 4.2 01:08:27 10° WNW 01:12:28 47° N 01:13:56 32° NE
Unknown 3.6 01:10:15 10° WNW 01:13:35 53° SSW 01:14:41 35° SSE
Cosmos 1076 Rocket 3.4 01:10:52 10° N 01:15:16 76° E 01:19:36 10° SSE
Cosmos 2061 Rocket 4.3 01:09:51 10° N 01:15:47 43° ENE 01:19:09 24° SE
Shenzhou-11 Module 4.3 01:14:23 10° SW 01:15:53 14° SSW 01:16:24 13° S
Cosmos 1937 Rocket 4.0 01:11:32 10° N 01:16:18 37° ENE 01:17:16 34° E
Cosmos 1726 4.2 01:13:52 10° SW 01:17:06 29° WNW 01:20:20 10° N
Unknown 4.2 01:13:43 10° WNW 01:17:43 47° N 01:18:56 35° NE
Cosmos 990 Rocket 4.2 01:13:02 10° NNW 01:18:05 47° ENE 01:19:46 35° ESE
Cosmos 1459 Rocket 4.0 01:12:31 10° N 01:18:41 59° ENE 01:24:54 10° SSE
Unknown 4.2 01:15:07 10° WNW 01:19:08 47° N 01:20:18 36° NE
FALCON 9 DEB 3.6 01:16:48 10° WNW 01:20:14 56° SSW 01:21:01 43° SSE
Unknown 4.2 01:16:42 10° WNW 01:20:45 47° N 01:21:52 37° NE
Meteor 2-1 Rocket 4.3 01:15:34 10° SSE 01:20:48 47° E 01:26:09 10° NNE
Unknown 4.2 01:18:21 10° WNW 01:22:23 47° N 01:23:27 38° NE
Unknown 3.3 01:19:02 10° WNW 01:22:46 70° NNE 01:23:15 60° ENE
Cosmos 1812 Rocket 3.5 01:19:21 10° S 01:23:47 89° ESE 01:28:16 10° N
Unknown 4.2 01:20:09 10° WNW 01:24:11 47° N 01:25:08 39° NE
Unknown 4.2 01:21:56 10° WNW 01:25:57 48° N 01:26:49 40° NE
BREEZE-M DEB (TANK) 3.0 01:18:23 10° SW 01:27:20 50° SSE 01:28:09 43° SE
Unknown 4.1 01:25:15 10° WNW 01:29:17 48° N 01:30:01 43° NE
Unknown 4.1 01:25:23 10° WNW 01:29:24 48° N 01:30:08 42° NE
In-Cosmos 22 Rocket 4.0 01:25:13 10° N 01:30:37 68° ENE 01:34:10 22° SSE
Unknown 4.1 01:26:48 10° WNW 01:30:50 48° N 01:31:30 43° NE
Cosmos 2058 2.8 01:27:59 10° N 01:32:14 83° E 01:34:01 34° SSE
YAOGAN 1 4.1 01:29:45 10° SSW 01:33:45 36° W 01:37:47 10° NNW
Unknown 3.6 01:30:34 10° WNW 01:34:01 52° SSW 01:34:14 51° SSW
Unknown 4.1 01:30:03 10° WNW 01:34:05 48° N 01:34:36 45° NNE
NOSS 3-2 (A) 3.3 01:29:42 10° SSW 01:35:28 72° SE 01:39:33 24° NE
Falcon 9 debris 4.1 01:32:29 10° WNW 01:35:44 39° SW 01:36:02 38° SSW
Unknown 4.0 01:33:27 10° WNW 01:37:29 49° N 01:37:51 47° NNE
Cosmos 2151 3.7 01:34:58 10° N 01:38:05 40° NNE 01:38:05 40° NNE
Unknown 4.0 01:35:10 10° WNW 01:39:12 49° N 01:39:29 48° NNE
SPOT 3 Rocket 3.7 01:39:57 49° ENE 01:40:14 49° ENE 01:45:15 10° N
ATLAS 5 CENTAUR R/B 4.0 01:37:03 10° WNW 01:40:29 19° NNW 01:43:45 12° NNE
Unknown 4.0 01:36:49 10° WNW 01:40:52 49° N 01:41:05 49° NNE
Cosmos 1727 Rocket 4.2 01:35:14 10° SSW 01:41:22 71° W 01:47:34 10° N
Unknown 4.0 01:38:30 10° WNW 01:42:34 50° N 01:42:42 49° NNE
Cosmos 1892 4.3 01:40:00 10° N 01:41:44 25° N 01:41:44 25° N
Unknown 4.1 01:41:51 10° WNW 01:45:54 50° N 01:45:54 50° N
Cosmos 2173 Rocket 3.9 01:39:51 10° N 01:46:10 90° WSW 01:52:20 10° S
Unknown 4.1 01:43:34 10° WNW 01:47:33 51° N 01:47:33 51° N
Cosmos 2278 Rocket 3.1 01:42:42 10° SW 01:48:13 49° NW 01:53:45 10° NNE
Unknown 4.1 01:45:10 10° WNW 01:49:04 50° N 01:49:04 50° N
Unknown 4.1 01:46:47 10° WNW 01:50:37 50° N 01:50:37 50° N
Cosmos 2297 3.6 01:45:25 10° SSW 01:51:03 68° ESE 01:52:59 42° NE
Cosmos 1864 Rocket 4.4 01:45:08 10° N 01:51:13 59° ENE 01:52:13 52° ESE
Unknown 4.1 01:48:18 10° WNW 01:52:06 51° N 01:52:06 51° N
Unknown 3.9 01:48:43 10° WNW 01:51:53 57° NW 01:51:53 57° NW
Cosmos 1802 Rocket 3.9 01:46:10 10° N 01:52:39 85° E 01:57:20 20° S
Lacrosse 5 2.9 01:48:35 10° WNW 01:53:19 40° SW 01:55:11 29° S
Unknown 4.2 01:49:57 10° WNW 01:53:41 49° N 01:53:41 49° N
Cosmos 1939 Rocket 4.3 01:51:16 10° SSW 01:55:00 38° W 01:58:49 10° NNW
H-2A R/B 2.2 01:56:38 58° ENE 01:56:38 58° ENE 02:01:45 10° N
Unknown 4.3 01:53:19 10° WNW 01:56:53 48° NNW 01:56:53 48° NNW
BREEZE M DEB (TANK) 4.4 01:55:17 10° W 01:58:05 26° SSW 01:59:33 23° S
Unknown 4.3 01:54:58 10° WNW 01:58:29 48° NNW 01:58:29 48° NNW
Cosmos 2123 Rocket 4.0 01:59:28 56° E 01:59:28 56° E 02:05:17 10° NNE
NOSS 3-2 (C) 3.3 01:54:59 10° SSW 02:00:46 71° SE 02:02:01 56° ENE
Unknown 4.4 01:56:52 10° WNW 02:00:17 48° NNW 02:00:17 48° NNW
ADEOS Rocket 3.5 01:53:57 10° NNE 02:01:30 56° E 02:08:29 10° S
Unknown 4.4 01:58:18 10° WNW 02:01:41 46° NNW 02:01:41 46° NNW
Unknown 4.5 01:59:56 10° WNW 02:03:14 45° NNW 02:03:14 45° NNW
Cosmos 1300 4.0 02:00:57 10° SW 02:04:33 39° WNW 02:08:11 10° N
Cosmos 1898 Rocket 3.6 02:00:26 10° NNW 02:05:42 72° WSW 02:06:50 54° S
Cosmos 2233 Rocket 4.3 02:01:39 10° N 02:06:54 48° NE 02:06:54 48° NE
Cosmos 1000 Rocket 4.5 02:01:43 10° SSW 02:07:55 81° W 02:14:14 10° N
Cosmos 1725 Rocket 3.8 02:01:40 10° N 02:07:59 76° E 02:08:58 63° SE
ARGOS 3.2 02:09:59 64° NNE 02:09:59 64° NNE 02:14:49 10° N
SJ 16-02 2.2 02:12:30 10° NNW 02:15:37 45° NW 02:15:37 45° NW
ATLAS 3B R/B 2.7 02:23:29 10° SSW 02:29:06 62° S 02:29:06 62° S
ATLAS CENTAUR R/B 3.6 02:26:24 10° NNW 02:28:15 20° N 02:28:15 20° N
Cosmos 2016 Rocket 4.3 02:24:30 10° NNW 02:30:42 63° W 02:33:14 37° SSW
CENTAUR R/B 2.8 02:32:36 10° SW 02:37:13 57° SW 02:37:13 57° SW
CZ-2C R/B 4.0 02:47:26 50° NNW 02:47:26 50° NNW 02:51:36 10° NNW
Resurs 01 Rocket 4.1 02:50:21 16° NNW 02:50:21 16° NNW 02:51:16 10° NNW
ATLAS 5 CENTAUR R/B 4.5 03:23:34 10° NNW 03:25:18 16° NNW 03:25:18 16° NNW
H-2A R/B 4.3 03:37:16 22° WNW 03:37:16 22° WNW 03:40:30 10° NW
CENTAUR R/B 4.1 08:16:32 40° NE 08:16:32 40° NE 08:23:53 10° E
ATLAS 2AS CENTAUR R/B 4.4 08:38:56 29° ESE 08:39:13 29° ESE 08:45:48 10° NE
Cosmos 2333 Rocket 3.7 09:09:15 33° ENE 09:09:15 33° ENE 09:12:44 10° NE
USA 267 4.1 09:07:54 10° ENE 09:13:19 41° ESE 09:13:19 41° ESE
SL-16 R/B 4.2 09:23:05 20° N 09:23:05 20° N 09:25:09 10° NNE
Cosmos 2219 Rocket 3.3 09:24:20 40° NE 09:24:20 40° NE 09:28:02 10° NE
NOSS 3-2 (C) 3.9 09:30:18 84° ENE 09:30:18 84° ENE 09:38:35 10° SE
Resurs 1-4 Rocket 4.5 09:27:17 10° N 09:28:00 13° N 09:28:00 13° N
Cosmos 2237 Rocket 3.7 09:35:06 29° SE 09:36:16 31° ESE 09:41:12 10° NE
Cosmos 2181 Rocket 4.2 09:33:09 10° N 09:39:00 67° NE 09:39:00 67° NE
COSMOS 2455 3.5 09:41:42 47° N 09:41:42 47° N 09:46:05 10° NNE
Cosmos 2322 Rocket 4.0 09:51:15 20° NNW 09:51:15 20° NNW 09:53:39 10° N
NOSS 3-4 (A) 4.3 09:48:13 38° SE 09:49:19 41° ESE 09:55:13 10° NE
NOSS 3-4 (C) 4.3 09:48:14 37° SE 09:49:25 41° ESE 09:55:18 10° NE
USA 234 3.2 09:43:02 10° ESE 09:49:34 79° NNE 09:50:16 71° NNW
ADEOS II 3.7 09:50:28 10° N 09:52:46 26° N 09:52:46 26° N
Cosmos 2360 Rocket 3.6 09:58:52 28° NNW 09:58:52 28° NNW 10:02:06 10° NNE
COSMOS 2428 3.0 09:59:12 62° NNE 09:59:12 62° NNE 10:03:56 10° NNE
ATLAS 3B R/B 2.6 09:57:10 60° NNW 09:58:31 82° NE 10:05:24 10° SE
Cosmos 1025 Rocket 4.4 10:08:07 33° NNE 10:08:07 33° NNE 10:10:33 10° NNE
Gblst 52 Del rocket 4.1 10:07:06 75° NNE 10:07:06 75° NNE 10:12:42 10° E
CENTAUR R/B 3.0 10:03:48 37° NW 10:07:35 84° SW 10:16:16 10° SE
PSLV R/B 4.4 10:06:02 10° NNE 10:09:37 47° ENE 10:09:37 47° ENE
CZ-2C R/B 4.4 10:06:12 10° NE 10:10:40 28° E 10:15:03 10° SSE
Cosmos 1943 Rocket 4.5 10:08:15 10° N 10:12:31 21° NE 10:16:46 10° E
CZ-2D R/B 4.5 10:14:45 10° NNW 10:14:47 10° NNW 10:14:47 10° NNW
IDEFIX/ARIANE 42P 2.6 10:17:32 10° NNE 10:22:49 76° ESE 10:24:31 44° S
MSX 4.4 10:18:18 10° NNE 10:23:56 55° E 10:29:32 10° S
NOSS 2-2 (C) 4.5 10:27:46 37° N 10:27:46 37° N 10:30:54 10° NE
ATLAS 2AS CENTAUR R/B 3.0 10:26:24 43° SW 10:29:31 85° NW 10:37:36 10° NE
SL-16 R/B 3.8 10:26:11 10° SSE 10:31:09 32° ESE 10:36:07 10° NE
NOSS 0 Rocket 3.8 10:29:31 47° SSW 10:31:27 89° WNW 10:37:42 10° NNE
Cosmos 1709 Rocket 4.3 10:33:45 46° WNW 10:33:45 46° WNW 10:39:33 10° N
Cosmos 2278 Rocket 3.0 10:40:13 33° SSW 10:40:13 33° SSW 10:43:31 10° S
Cosmos 2297 4.0 10:35:54 10° NNW 10:41:41 69° ENE 10:47:24 10° SE
Cosmos 2184 Rocket 3.9 10:36:04 10° S 10:42:19 90° W 10:48:40 10° N
Cosmos 407 Rocket 3.3 10:40:56 46° SSW 10:42:32 88° WNW 10:47:41 10° NNE
Cosmos 1190 Rocket 4.0 10:41:37 34° SSW 10:44:00 86° ESE 10:49:19 10° NNE
Nadezhda 3 Rocket 4.2 10:41:54 10° N 10:48:20 77° E 10:54:39 10° SSE
Cosmos 2333 Rocket 2.8 10:51:17 37° WNW 10:51:42 37° NW 10:57:01 10° NNE
Spot 2 4.3 10:49:15 10° N 10:52:34 47° NW 10:52:34 47° NW
BREEZE-M DEB (TANK) 4.0 10:57:27 20° SSE 10:57:27 20° SSE 10:58:24 10° SE
USA 267 3.2 10:50:52 10° NE 10:57:24 76° NNW 11:00:41 32° WSW
Cosmos 1892 Rocket 4.4 10:54:37 10° S 10:58:55 52° E 11:03:12 10° NNE
Meteor 2-10 4.4 10:54:04 10° N 10:59:16 65° ENE 11:04:36 10° SSE
Meteor 1-4 Rocket 2.4 10:59:10 41° S 11:00:16 82° E 11:03:46 10° NNE
H-2A R/B 2.4 10:58:15 10° N 11:02:26 75° WNW 11:05:09 22° SSW
Cosmos 1726 2.7 11:01:13 10° N 11:04:51 56° ENE 11:08:28 10° SSE
Cosmos 389 Rocket 2.7 11:06:34 49° NW 11:06:34 49° NW 11:09:29 10° N
SL-16 R/B 4.4 11:05:11 10° NNW 11:06:11 10° NNW 11:07:10 10° NNW
ARIANE 5 R/B 4.4 11:03:51 10° NNW 11:05:09 13° NW 11:05:09 13° NW
Cosmos 2219 Rocket 3.0 11:06:04 29° WNW 11:06:51 30° NW 11:11:46 10° NNE
Cosmos 1606 Rocket 3.4 11:03:24 10° NNW 11:07:43 67° W 11:12:00 10° S
Cosmos 1953 2.4 11:06:18 10° NNW 11:10:13 50° W 11:14:05 10° S
Cosmos 2074 Rocket 4.0 11:05:46 10° SSW 11:11:51 55° WNW 11:17:59 10° N
USA 32 4.4 11:11:45 25° SW 11:14:16 42° WNW 11:19:16 10° N
ADEOS 3.9 11:10:24 10° N 11:15:21 44° WNW 11:18:03 24° WSW
ERBS 3.2 11:16:11 33° NW 11:16:30 34° NNW 11:19:38 10° NE
Cosmos 1356 3.2 11:13:11 10° NNW 11:16:39 70° W 11:20:04 10° S
Cosmos 614 Rocket 4.2 11:14:28 28° WSW 11:16:54 49° WNW 11:21:58 10° NNE
GP-B 3.3 11:13:09 10° S 11:17:33 72° E 11:22:00 10° N
In-Cosmos 22 4.3 11:12:25 10° S 11:17:47 77° E 11:23:18 10° NNE
Cosmos 1707 3.0 11:17:43 36° WSW 11:18:44 44° WNW 11:22:31 10° N
CZ-4B R/B 2.8 11:14:53 10° NNE 11:18:55 83° ESE 11:22:44 10° SSW
COSMOS 2441 4.4 11:14:15 10° N 11:19:05 58° WNW 11:23:52 10° SSW
Meteor 1-31 Rocket 2.6 11:15:28 10° NNE 11:19:18 89° ESE 11:23:06 10° SSW
Cosmos 1140 Rocket 3.4 11:15:27 16° SW 11:19:30 65° WNW 11:24:39 10° NNE
Cosmos 2237 Rocket 2.4 11:16:59 25° WSW 11:20:05 51° NW 11:25:40 10° NNE
Cosmos 1954 Rocket 3.9 11:15:27 10° SSW 11:20:42 83° WNW 11:25:57 10° NNE
PAYLOAD A 3.9 11:21:43 10° N 11:26:29 58° WNW 11:31:24 10° SSW
COSMOS 2455 4.3 11:24:51 18° WNW 11:27:08 22° NNW 11:31:43 10° NNE
Cosmos 468 Rocket 4.1 11:23:56 10° NNW 11:29:08 75° ENE 11:34:15 10° SSE
Cosmos 1674 3.2 11:27:13 10° S 11:30:51 59° E 11:34:32 10° NNE
Cosmos 2369 Rocket 3.0 11:26:42 10° NNW 11:32:12 53° NE 11:37:40 10° SE
USA 234 3.7 11:26:51 10° SSE 11:32:56 40° SW 11:37:37 17° WNW
Cosmos 1484 Rocket 3.3 11:31:15 10° NNE 11:35:02 61° E 11:38:51 10° S
Cosmos 44 Rocket 3.4 11:32:43 16° NW 11:36:17 50° WSW 11:40:48 10° SSE
Cosmos 1980 4.3 11:34:45 20° WSW 11:38:07 37° NW 11:43:21 10° NNE
Cosmos 2228 3.4 11:34:50 10° NNW 11:38:46 37° W 11:42:40 10° SSW
Okean 1-7 Rocket 3.6 11:35:19 10° SSW 11:39:44 62° WNW 11:44:14 10° N
NOSS 3-4 (A) 3.7 11:35:41 18° WSW 11:40:05 52° NW 11:46:29 10° NE
NOSS 3-4 (C) 3.7 11:35:43 18° WSW 11:40:11 52° NW 11:46:35 10° NE
COSMO-SKYMED 1 2.5 11:37:09 10° SSE 11:41:30 85° WSW 11:45:53 10° NNW
Cosmos 1570 Rocket 4.4 11:37:00 10° NNW 11:42:22 71° ENE 11:47:41 10° SSE
Cosmos 2360 Rocket 4.2 11:41:10 10° NW 11:42:47 11° NNW 11:44:24 10° N
COSMOS 2428 4.1 11:41:14 17° WNW 11:43:24 20° NW 11:47:32 10° N
CZ-4B R/B 4.4 11:39:07 10° NNE 11:44:12 44° E 11:49:14 10° S
Cosmos 841 Rocket 4.4 11:42:02 10° NNW 11:47:13 52° ENE 11:52:20 10° SE
Cosmos 1726 Rocket 4.1 11:43:40 10° NNW 11:47:33 33° W 11:51:23 10° SSW
ATLAS 3B R/B 3.6 11:44:31 15° WNW 11:48:34 25° WSW 11:53:56 10° SSW
RESURS DK-1 2.5 11:44:33 10° SW 11:48:37 54° WNW 11:52:42 10° NNE
Helios 1A Rocket 3.8 11:44:53 10° NNE 11:48:59 54° E 11:53:03 10° S
CZ-2C R/B 2.8 11:44:06 10° N 11:49:04 47° WNW 11:53:58 10° SW
Cosmos 1626 4.4 11:48:48 10° SSE 11:52:04 30° E 11:55:21 10° NNE
Cosmos 1300 3.9 11:51:27 10° N 11:55:09 46° ENE 11:58:50 10° SSE
